Home   Weather   Miranda do Douro   Past weeks
Flag for Portugal

Past Weather in Miranda do Douro, Bragança, Portugal — Yesterday and Last 2 Weeks

Now
54 °F

Cool.


Feels Like: 53 °F
Forecast: 49 / 46 °F
Wind: 6 mph from Northwest

Location: Braganca

Current Time: Dec 13, 2019 at 4:09:55 pm

Latest Report: Dec 13, 2019 at 2:00 pm


Visibility: N/A

Pressure: 30.05 "Hg (27.46 "Hg at 752m altitude)

Humidity: 83%

Dew Point: 49 °F

Location of Miranda do DouroLocation

Past Weather in Miranda do Douro — Graph

°F

Miranda do Douro Temperature Yesterday

Maximum temperature yesterday: 53 °F (at 10:00 pm)
Minimum temperature yesterday: 42 °F (at 4:00 am)
Average temperature yesterday: 48 °F

High & Low Weather Summary for the Past Weeks

 TemperatureHumidityPressure
High58 °F (Nov 29, 2:00 pm)100% (Dec 9, 10:00 am)30.60 "Hg (Dec 9, 10:00 am)
Low29 °F (Dec 10, 8:00 am)48% (Dec 2, 3:00 pm)29.81 "Hg (Dec 1, 6:00 am)
Average43 °F86%30.18 "Hg
* Reported Nov 28 2:00 pm — Dec 13 2:00 pm, Miranda do Douro. Weather by CustomWeather, © 2019

Note: Actual official high and low records may vary slightly from our data, if they occured in-between our weather recording intervals... More about our weather records

Miranda do Douro Weather History for the Previous 24 Hours

Scroll right to see more
 ConditionsComfort  
Time TempWeatherWind HumidityBarometerVisibility
2:00 pm
Fri, Dec 13
54 °FCool.6 mph83%30.05 "HgN/A
1:00 pm54 °FCool.6 mph84%30.04 "HgN/A
12:00 pm53 °FCool.6 mph88%30.06 "HgN/A
11:00 am54 °FCool.7 mph82%30.05 "HgN/A
10:00 am54 °FCool.7 mph82%30.03 "HgN/A
9:00 am52 °FCool.5 mph87%30.03 "HgN/A
8:00 am52 °FCool.5 mph85%30.00 "HgN/A
7:00 am51 °FCool.7 mph88%29.97 "HgN/A
6:00 am51 °FCool.6 mph85%29.96 "HgN/A
5:00 am51 °FCool.8 mph83%29.94 "HgN/A
4:00 am51 °FCool.8 mph85%29.93 "HgN/A
3:00 am51 °FCool.9 mph83%29.91 "HgN/A
1:00 am53 °FCool.7 mph85%29.92 "HgN/A
12:00 am53 °FCool.7 mph84%29.93 "HgN/A
11:00 pm
Thu, Dec 12
53 °FCool.9 mph85%29.92 "HgN/A
10:00 pm53 °FCool.8 mph85%29.91 "HgN/A
9:00 pm53 °FCool.8 mph88%29.91 "HgN/A
8:00 pm53 °FCool.7 mph86%29.93 "HgN/A
7:00 pm52 °FCool.6 mph88%29.93 "HgN/A
6:00 pm51 °FCool.7 mph90%29.92 "HgN/A
5:00 pm51 °FCool.7 mph89%29.92 "HgN/A
4:00 pm51 °FCool.6 mph89%29.92 "HgN/A
Weather by CustomWeather, © 2019

See weather overview

Advertising